Location: ?
(35.4214°N, 139.3011°E)
Time: 21:41:25
(UTC+00:00)

Cosmos 2074 Rocket - Pass Details

Date: 14 July 2020
Orbit: 967 x 986 km, 82.9° (Epoch: 10 August)

Event Time Altitude Azimuth Distance (km) Brightness Sun altitude
Exits shadow 11:18:04 15° 159° (SSE) 2,336 5.5 -14.3°
Maximum altitude 11:22:54 47° 90° (E) 1,257 4.3 -15.0°
Drops below altitude 10° 11:28:48 10° 19° (NNE) 2,715 6.6 -15.9°
Sets 11:31:23 0° 14° (NNE) 3,664 7.4 -16.3°
